Showing default

KHALIFASAT, 43676

Orbit data source: Space-Track

KHALIFASAT, 43676 is a payload satellite owned by Rashid Space Ctr (AE) in SSO that was launched on Mon, 29 Oct 2018 UTC via an H-IIA 202 launch vehicle from the Tanegashima Space Center (TNSTA). Payload-class satellites include a variety of spacecraft equipped with specific instruments for various scientific and technological missions. These include communications satellites like Starlink; space stations such as the ISS; scientific satellites like the Hubble; Earth observation satellites from companies like Planet Labs, Umbra, and HawkEye 360; GPS; miniature CubeSats for education and research; and military/defense satellites.

Loading next visibility...
Identifier
43676, 2018-084F
Orbit
SSO
Country
Flag of AEAE / UAE
Related business
Manufacturer
MBRSC/SATREC
Mission
Operational Civil Imaging
Bus & Motor
SI-300, Unknown motor
Mass
330 kg wet, 300 kg dry
Launch date (UTC)
2018-10-29 (7 years ago)
Launch vehicle
H-IIA 202
Launch site
Tanegashima Space Center (TNSTA)
Object type
Payload
Rocket body
Debris
Shape & HBR
Hex Cyl + 3 Pan, 1.5 m
Radar Cross Section
2.520 m², Large (>1 m²)

Expand to show TLE details & history
Last TLE update: 5 hours ago

TLE from 5 hours ago
0 KHALIFASAT
1 43676U 18084F   26065.87585123  .00005925  00000-0  46950-3 0  9993
2 43676  98.0861 244.2330 0006424  91.8366 268.3593 15.00953579400427
Epoch: 2026-03-06T21:01Z
TLE epoch observation values (Epoch: 2026-03-06T21:01:13.546Z)
Latitude
0.00003°
Longitude
124.32098°
Altitude
567.129 km
Speed
7.577 km/s
True Right ascension
16h 16m 55s
True Declination
0° 00' 00"
Sunlit
Object was in daylight at epoch
Visualization orbit readout
Latitude
Unknown
Longitude
Unknown
Altitude
Unknown
Speed
Unknown
Apparent Right ascension
Unknown
Apparent Declination
Unknown
Sunlit
N/A
Visualization observer readout
Local Sidereal Time
06:15:02
Azimuth
Unknown
Elevation
Unknown
Doppler factor
Unknown
Orbital elements
Apogee altitude
565.434 km
Perigee altitude
556.518 km
Semi-major axis
6,939.113 km
Eccentricity
0.00064
Inclination
98.0861°
RAAN
244.233°
Arg. of periapsis
91.8366°
True anomaly
268.28572°
Mean anomaly
268.3593°
Eccentric anomaly
268.32251°
Mean motion
3.7548 °/min
Orbital period
95.88 mins
BSTAR
0.0004695
Loading maneuver chart data...
Computing Atmospheric mass density...
Loading historical data...
Loading historical data...
Loading historical data...
Loading historical data...
Loading historical data...
Loading historical data...
Loading historical data...

Documentation

Showing up to 5 results
|